Weather reports worldwide

Advertisment
Altnaharra, United Kingdom (3044): temperature & dewpoint: 23.05.2020 14:00:00 - 29.05.2020 14:00:00 (BST)Altnaharra, United Kingdom (3044): temperature -20cm & temperature -100cm: 23.05.2020 14:00:00 - 29.05.2020 14:00:00 (BST)Altnaharra, United Kingdom (3044): wind speed & gusts: 23.05.2020 14:00:00 - 29.05.2020 14:00:00 (BST)Altnaharra, United Kingdom (3044): wind direction: 23.05.2020 14:00:00 - 29.05.2020 14:00:00 (BST)Altnaharra, United Kingdom (3044): reduced air pressure: 23.05.2020 14:00:00 - 29.05.2020 14:00:00 (BST)Altnaharra, United Kingdom (3044): visibility: 23.05.2020 14:00:00 - 29.05.2020 14:00:00 (BST)Altnaharra, United Kingdom (3044): sunshine duration: 23.05.2020 14:00:00 - 29.05.2020 14:00:00 (BST)Altnaharra, United Kingdom (3044): precipitation: 23.05.2020 14:00:00 - 29.05.2020 14:00:00 (BST)
Date & Time tt [°C] td [°C] tt -20cm [°C] tt -100cm [°C] ff [km/h] ff [kn] fx [km/h] fx [kn] dd ppp [hPa] vv [km] sd [min] rr [mm]
29.05.2020 14:00:00 25,2 14,4 - - 8 4 - - NNE 1024,4 45 60 0,0
29.05.2020 13:00:00 24,6 13,7 - - 9 5 - - ENE 1024,9 40 60 0,0
29.05.2020 12:00:00 23,2 13,2 - - 11 6 - - SSW 1025,5 30 60 0,0
29.05.2020 11:00:00 22,4 13,8 - - 11 6 - - S 1026,0 30 60 0,0
29.05.2020 10:00:00 19,1 14,5 12,0 9,2 9 5 - - SE 1026,5 35 60 0,0
29.05.2020 09:00:00 16,6 13,8 - - 5 3 - - NW 1026,9 50 60 0,0
29.05.2020 08:00:00 14,6 14,4 - - 4 2 - - ENE 1027,3 40 60 0,0
29.05.2020 07:00:00 10,5 10,4 - - 5 3 - - ESE 1027,8 8 24 0,0
29.05.2020 06:00:00 9,7 9,7 - - 2 1 - - W 1028,2 0,1 0 0,0
29.05.2020 05:00:00 9,9 9,9 - - 5 3 - - N 1028,4 0,1 0 0,0
29.05.2020 04:00:00 9,8 9,6 - - 4 2 - - N 1028,6 0,1 0 0,0
29.05.2020 03:00:00 10,2 9,9 - - 2 1 - - SE 1029,1 20 0 0,0
29.05.2020 02:00:00 10,4 10,1 - - 2 1 - - E 1029,5 20 0 0,0
29.05.2020 01:00:00 10,3 10,0 - - 8 4 - - N 1029,8 35 - 0,0
29.05.2020 00:00:00 9,7 9,0 - - 5 3 - - SSW 1029,9 10 0 0,0
28.05.2020 23:00:00 10,4 9,5 - - 8 4 - - W 1030,1 17 0 0,0
28.05.2020 22:00:00 13,3 11,3 - - 4 2 - - W 1029,7 35 0 0,0
28.05.2020 21:00:00 16,9 12,6 - - 4 2 - - E 1029,5 40 54 0,0
28.05.2020 20:00:00 19,1 12,9 - - 9 5 - - NW 1029,5 50 54 0,0
28.05.2020 19:00:00 19,4 12,2 - - 11 6 - - NW 1029,6 40 60 0,0
28.05.2020 18:00:00 19,4 13,4 - - 15 8 - - W 1029,9 50 60 0,0
28.05.2020 17:00:00 19,3 13,0 - - 16 9 - - SW 1030,0 45 48 0,0
28.05.2020 16:00:00 18,3 12,8 - - 22 12 - - WSW 1030,4 50 30 0,0
28.05.2020 15:00:00 18,6 13,7 - - 21 11 - - NW 1030,6 35 60 0,0
28.05.2020 14:00:00 18,2 14,4 - - 18 10 - - W 1030,7 40 30 0,0
28.05.2020 13:00:00 15,5 12,3 - - 21 11 - - W 1031,2 50 0 0,0
28.05.2020 12:00:00 15,3 12,2 - - 16 9 - - W 1031,1 30 24 0,0
28.05.2020 11:00:00 15,8 12,7 - - 26 14 - - WSW 1030,8 40 54 0,0
28.05.2020 10:00:00 14,1 11,9 11,4 9,2 24 13 - - WSW 1030,7 27 12 0,0
28.05.2020 09:00:00 13,7 11,9 - - 13 7 - - SW 1030,8 30 0 0,0
28.05.2020 08:00:00 12,7 11,4 - - 9 5 - - SW 1030,8 50 0 0,0
28.05.2020 07:00:00 11,5 10,6 - - 9 5 - - SSW 1030,9 10 0 0,2
28.05.2020 06:00:00 11,0 10,1 - - 9 5 - - SSW 1031,0 24 0 0,0
28.05.2020 05:00:00 10,8 10,2 - - 11 6 - - S 1031,2 7 0 0,6
28.05.2020 04:00:00 9,4 9,0 - - 5 3 - - WSW 1031,7 10 0 0,6
28.05.2020 03:00:00 8,9 8,4 - - 2 1 - - ENE 1032,3 8 0 1,0
28.05.2020 02:00:00 8,9 8,2 - - 2 1 - - SE 1033,0 11 0 1,4
28.05.2020 01:00:00 9,0 8,0 - - 5 3 - - NW 1033,8 8 - 1,8
28.05.2020 00:00:00 9,1 7,5 - - 2 1 - - WNW 1033,7 29 0 0,0
27.05.2020 23:00:00 9,6 6,9 - - 8 4 - - SW 1034,4 40 0 0,0
27.05.2020 22:00:00 11,0 6,5 - - 18 10 - - NNE 1034,8 30 0 0,0
27.05.2020 21:00:00 12,1 6,6 - - 16 9 - - ENE 1035,3 35 0 0,0
27.05.2020 20:00:00 13,8 6,4 - - 15 8 - - NNE 1035,3 40 18 0,0
27.05.2020 19:00:00 14,3 5,7 - - 15 8 - - NNE 1035,5 30 48 0,0
27.05.2020 18:00:00 16,2 4,1 - - 8 4 - - WSW 1035,6 50 60 0,0
27.05.2020 17:00:00 16,7 5,1 - - 8 4 - - W 1036,2 40 54 0,0
27.05.2020 16:00:00 16,3 5,4 - - 11 6 - - SW 1036,6 26 54 0,0
27.05.2020 15:00:00 15,7 5,0 - - 9 5 - - SW 1036,6 35 60 0,0
27.05.2020 14:00:00 14,3 5,5 - - 16 9 - - W 1037,0 30 42 0,0
27.05.2020 13:00:00 13,7 4,2 - - 21 11 - - WSW 1037,3 30 60 0,0
27.05.2020 12:00:00 13,8 5,0 - - 22 12 - - WSW 1037,4 40 54 0,0
27.05.2020 11:00:00 13,4 5,4 - - 21 11 - - WSW 1037,3 30 30 0,0
27.05.2020 10:00:00 12,1 4,3 10,7 9,0 18 10 - - WSW 1037,1 40 36 0,0
27.05.2020 09:00:00 11,4 5,5 - - 16 9 - - WSW 1036,9 30 6 0,0
27.05.2020 08:00:00 10,8 6,2 - - 26 14 - - W 1036,6 24 6 0,0
27.05.2020 07:00:00 10,0 6,6 - - 11 6 - - WSW 1036,3 30 0 0,0
27.05.2020 06:00:00 9,2 6,0 - - 5 3 - - SSW 1036,2 25 0 0,0
27.05.2020 05:00:00 9,0 5,1 - - 8 4 - - SSW 1035,9 35 0 0,0
27.05.2020 04:00:00 9,5 5,3 - - 9 5 - - S 1036,1 27 0 0,0
27.05.2020 03:00:00 10,0 4,5 - - 5 3 - - ENE 1036,1 25 0 0,0
27.05.2020 02:00:00 9,8 5,6 - - 11 6 - - ESE 1036,0 25 0 0,0
27.05.2020 01:00:00 9,9 4,9 - - 15 8 - - ESE 1035,9 29 - 0,0
27.05.2020 00:00:00 9,7 5,0 - - 15 8 - - ESE 1035,8 30 0 0,0
26.05.2020 23:00:00 9,3 4,4 - - 18 10 - - E 1036,1 30 0 0,0
26.05.2020 22:00:00 10,2 4,6 - - 9 5 - - SSW 1035,7 30 0 0,0
26.05.2020 21:00:00 11,4 5,8 - - 11 6 - - WSW 1035,3 30 0 0,0
26.05.2020 20:00:00 11,9 4,8 - - 11 6 - - SSW 1035,1 35 30 0,0
26.05.2020 19:00:00 13,7 3,2 - - 16 9 - - WSW 1034,9 45 60 0,0
26.05.2020 18:00:00 14,4 4,8 - - 18 10 46 25 SW 1034,4 30 60 0,0
26.05.2020 17:00:00 14,8 5,2 - - 18 10 48 26 SW 1034,1 35 60 0,0
26.05.2020 16:00:00 14,7 5,4 - - 28 15 48 26 SW 1033,8 28 60 0,0
26.05.2020 15:00:00 14,9 4,5 - - 28 15 46 25 SW 1033,5 35 60 0,0
26.05.2020 14:00:00 14,6 4,3 - - 28 15 52 28 SW 1033,3 20 60 0,0
26.05.2020 13:00:00 14,9 4,9 - - 29 16 57 31 SW 1032,8 45 60 0,0
26.05.2020 12:00:00 13,9 4,0 - - 34 18 67 36 SW 1032,4 23 60 0,0
26.05.2020 11:00:00 13,6 4,9 - - 39 21 68 37 SW 1031,0 29 60 0,0
26.05.2020 10:00:00 13,2 5,0 10,5 9,0 42 23 67 36 SW 1030,3 30 60 0,0
26.05.2020 09:00:00 12,2 5,5 - - 29 16 46 25 SW 1030,4 30 0 0,0
26.05.2020 08:00:00 11,4 5,1 - - 21 11 - - SSW 1030,3 26 0 0,0
26.05.2020 07:00:00 10,8 6,0 - - 21 11 - - SSW 1029,8 22 0 0,0
26.05.2020 06:00:00 10,6 5,3 - - 21 11 - - SSW 1029,4 18 0 0,0
26.05.2020 05:00:00 10,0 4,9 - - 22 12 - - SSW 1029,0 23 0 0,0
26.05.2020 04:00:00 9,9 4,9 - - 18 10 - - SSW 1028,4 24 0 0,0
26.05.2020 03:00:00 10,4 4,9 - - 21 11 46 25 SSW 1028,0 30 0 0,0
26.05.2020 02:00:00 10,4 5,5 - - 18 10 - - SW 1027,5 35 0 0,0
26.05.2020 01:00:00 10,3 6,3 - - 22 12 - - SSW 1027,0 45 - 0,0
26.05.2020 00:00:00 10,7 8,1 - - 13 7 - - SSW 1027,3 50 0 0,0
25.05.2020 23:00:00 11,8 9,7 - - 13 7 - - SSW 1027,2 50 0 0,0
25.05.2020 22:00:00 11,6 9,4 - - 16 9 - - S 1026,6 50 0 0,0
25.05.2020 21:00:00 12,5 9,0 - - 15 8 - - S 1026,5 50 0 0,0
25.05.2020 20:00:00 13,1 8,9 - - 16 9 - - S 1026,0 45 0 0,0
25.05.2020 19:00:00 15,1 7,3 - - 18 10 - - S 1025,3 50 0 0,0
25.05.2020 18:00:00 16,1 6,3 - - 18 10 - - S 1024,9 50 0 0,0
25.05.2020 17:00:00 16,4 6,0 - - 21 11 - - S 1024,7 50 0 0,0
25.05.2020 16:00:00 17,2 6,2 - - 18 10 - - S 1024,5 50 0 0,0
25.05.2020 15:00:00 17,8 7,7 - - 22 12 - - SSE 1024,5 45 0 0,0
25.05.2020 14:00:00 17,5 5,6 - - 21 11 - - S 1025,0 40 0 0,0
25.05.2020 13:00:00 18,0 5,3 - - 22 12 46 25 S 1025,6 40 60 0,0
25.05.2020 12:00:00 17,8 5,5 - - 26 14 - - S 1026,1 40 60 0,0
25.05.2020 11:00:00 17,5 4,2 - - 26 14 - - S 1026,2 50 60 0,0
25.05.2020 10:00:00 16,4 1,9 10,2 9,0 24 13 - - S 1026,2 40 60 0,0
25.05.2020 09:00:00 15,3 8,1 - - 21 11 - - SSE 1026,4 30 60 0,0
25.05.2020 08:00:00 13,5 7,1 - - 18 10 - - SSE 1027,1 40 60 0,0
25.05.2020 07:00:00 12,3 6,5 - - 13 7 - - S 1027,0 35 54 0,0
25.05.2020 06:00:00 10,7 6,6 - - 13 7 - - S 1027,4 50 30 0,0
25.05.2020 05:00:00 9,9 7,3 - - 5 3 - - NW 1027,5 45 0 0,0
25.05.2020 04:00:00 9,9 7,3 - - 9 5 - - SSE 1027,6 35 0 0,0
25.05.2020 03:00:00 9,7 6,6 - - 11 6 - - SE 1027,5 50 0 0,0
25.05.2020 02:00:00 11,2 6,7 - - 9 5 - - S 1027,4 50 0 0,0
25.05.2020 01:00:00 11,1 7,3 - - 15 8 - - SSW 1027,2 35 - 0,0
25.05.2020 00:00:00 11,7 6,7 - - 21 11 48 26 SSW 1026,7 40 0 0,0
24.05.2020 23:00:00 11,5 6,0 - - 24 13 48 26 SSW 1026,0 35 0 0,0
24.05.2020 22:00:00 11,8 6,3 - - 31 17 54 29 SSW 1026,2 28 0 0,0
24.05.2020 21:00:00 12,1 7,4 - - 18 10 - - SSW 1026,2 30 6 0,0
24.05.2020 20:00:00 12,5 7,4 - - 16 9 - - SSW 1025,9 30 48 0,0
24.05.2020 19:00:00 12,5 8,6 - - 22 12 - - SW 1025,3 22 0 0,0
24.05.2020 18:00:00 12,1 9,9 - - 21 11 - - SW 1024,6 35 0 0,0
24.05.2020 17:00:00 12,0 10,2 - - 16 9 48 26 SW 1024,3 12 0 0,0
24.05.2020 16:00:00 11,8 10,4 - - 34 18 48 26 WSW 1023,7 7 0 0,0
24.05.2020 15:00:00 11,7 10,8 - - 31 17 48 26 WSW 1022,9 3,7 0 0,2
24.05.2020 14:00:00 11,7 10,5 - - 29 16 46 25 WSW 1021,5 3,2 0 0,0
24.05.2020 13:00:00 12,1 10,8 - - 26 14 - - WSW 1020,1 23 0 0,0
24.05.2020 12:00:00 11,4 9,4 - - 28 15 - - WSW 1019,1 25 0 0,0
24.05.2020 11:00:00 11,3 9,0 - - 21 11 - - W 1018,0 30 0 0,0
24.05.2020 10:00:00 11,5 7,6 10,2 8,9 26 14 - - WSW 1017,2 27 6 0,0
24.05.2020 09:00:00 11,6 7,2 - - 26 14 - - WSW 1016,3 30 12 0,0
24.05.2020 08:00:00 10,2 6,8 - - 24 13 - - WSW 1015,5 20 0 0,0
24.05.2020 07:00:00 9,7 6,3 - - 29 16 50 27 WSW 1014,5 28 0 0,0
24.05.2020 06:00:00 9,7 6,1 - - 26 14 55 30 WSW 1013,7 35 0 0,0
24.05.2020 05:00:00 9,6 6,0 - - 29 16 63 34 WSW 1012,6 24 0 0,0
24.05.2020 04:00:00 9,3 6,1 - - 44 24 70 38 WSW 1011,2 13 0 0,0
24.05.2020 03:00:00 9,4 6,4 - - 46 25 74 40 WSW 1010,0 24 0 0,2
24.05.2020 02:00:00 9,1 7,2 - - 46 25 74 40 WSW 1009,4 7 0 0,0
24.05.2020 01:00:00 9,2 7,6 - - 48 26 80 43 WSW 1008,2 4,2 - 0,4
24.05.2020 00:00:00 9,2 7,6 - - 52 28 78 42 WSW 1006,7 6 0 0,2
23.05.2020 23:00:00 9,2 8,0 - - 54 29 91 49 WSW 1005,7 4,4 0 1,4
23.05.2020 22:00:00 9,2 8,2 - - 50 27 85 46 WSW 1004,0 6 0 2,6
23.05.2020 21:00:00 9,2 7,7 - - 46 25 76 41 WSW 1002,6 4,2 0 2,2
23.05.2020 20:00:00 9,0 7,2 - - 48 26 72 39 WSW 1001,8 4,7 0 2,8
23.05.2020 19:00:00 8,7 7,1 - - 44 24 81 44 WSW 1000,9 3,1 6 1,6
23.05.2020 18:00:00 9,8 7,5 - - 39 21 72 39 SW 999,7 11 6 1,0
23.05.2020 17:00:00 9,7 7,3 - - 31 17 67 36 WSW 999,3 13 0 0,6
23.05.2020 16:00:00 10,0 7,6 - - 26 14 - - SW 998,5 10 0 0,4
23.05.2020 15:00:00 10,5 7,4 - - 28 15 54 29 SW 997,4 18 6 0,2
23.05.2020 14:00:00 11,1 8,6 - - 26 14 52 28 SW 996,3 12 6 0,2

tt = temperature
td = dewpoint
tt -20cm = temperature -20cm
tt -100cm = temperature -100cm
ff = wind speed
fx = gusts
dd = wind direction
ppp = reduced air pressure
vv = visibility
sd = sunshine duration
rr = precipitation

Next stations